Regional Weather Roundup
Issued by NWS

Home | Current Version | Previous Version | Graphics & Text | Print | Product List | Glossary On
Versions: 1 2 3 4 5 6 7 8 9 10 11 12 13 14 15 16 17 18 19 20 21 22 23 24 25 26 27 28 29 30 31 32 33 34 35 36 37 38 39 40 41 42 43 44 45 46 47 48 49 50
787
ASUS44 KJAN 270410
RWRMS

MISSISSIPPI HOURLY WEATHER ROUNDUP
NATIONAL WEATHER SERVICE JACKSON MS
1100 PM CDT TUE AUG 26 2014

NOTE: "FAIR: INDICATES FEW OR NO CLOUDS BELOW 12,000 FEET WITH NO
SIGNIFICANT WEATHER AND/OR OBSTRUCTIONS TO VISIBILITY.

MSZ001>002-007>008-010>013-018>021-025>028-034>036-270500-
NORTHWEST MISSISSIPPI

CITY           SKY/WX    TMP DP  RH WIND       PRES   REMARKS
CLARKSDALE     FAIR      75  72  88 CALM      30.05S
CLEVELAND      FAIR      76  71  84 E6        30.03S
GREENWOOD      CLEAR     73  67  81 NE5       30.03S
GREENVILLE     CLEAR     75  68  78 NE5       30.03S
GRENADA        FAIR      73  66  78 NE5       30.05S
OLIVE BRANCH   CLEAR     77  75  94 CALM      30.07R
OXFORD         FAIR      72  66  83 CALM      30.08S
TUNICA         CLEAR     73  72  94 CALM      30.05F
$$

MSZ003>006-009-014>017-022>024-029>033-037>039-270500-
NORTHEAST MISSISSIPPI

CITY           SKY/WX    TMP DP  RH WIND       PRES   REMARKS
BELMONT        FAIR      69  68  95 CALM      30.07S
COLUMBUS AFB   CLEAR     72  67  86 N2        30.05S
CORINTH        FAIR      73  70  88 CALM      30.07S
GOLDN TRIANGLE CLEAR     72  64  78 NW3       30.05S
STARKVILLE     FAIR      75  64  69 N3        30.04F
TUPELO         CLEAR     74  66  76 NE5       30.05F
$$

MSZ040-058-270500-
CENTRAL MISSISSIPPI

CITY           SKY/WX    TMP DP  RH WIND       PRES   REMARKS
JACKSON INTL   PTCLDY    71  66  84 CALM      30.02S
JACKSON HAWKNS PTCLDY    74  66  76 CALM      30.03S
MERIDIAN KEY   CLEAR     71  65  81 CALM      30.03S
MERIDIAN NAS   CLEAR     71  64  78 CALM      30.03S
RAYMOND        FAIR      70  64  83 CALM      30.03S
VICKSBURG      PTCLDY    68  66  93 CALM      30.01F
$$

MSZ059>079-270500-
SOUTH MISSISSIPPI

CITY           SKY/WX    TMP DP  RH WIND       PRES   REMARKS
BROOKHAVEN     FAIR      70  66  88 CALM      30.04S
COLUMBIA       FAIR      70  68  94 MISG      30.00S
HATTIESBURG    MOCLDY    74  68  81 CALM      30.01S
MCCOMB         PTCLDY    77  65  66 VRB5      30.01S
NATCHEZ        MOCLDY    75  66  73 E3        30.02S
PINE BELT      CLEAR     73  63  68 CALM      30.03S
$$

MSZ080>082-270500-
COASTAL MISSISSIPPI

CITY           SKY/WX    TMP DP  RH WIND       PRES   REMARKS
BILOXI         MOCLDY    80  73  79 NE5       29.98F
PASCAGOULA     MOCLDY    75  72  90 CALM      29.99S
GULFPORT       PTCLDY    79  74  84 CALM      29.98S
$$



USA.gov is the U.S. government's official web portal to all federal, state and local government web resources and services.